This is the latest recevied weather packets stored in our database for station/object W4TJP. If no packets are shown the sender has not sent any weather packets the latest 10 day(s).
| Time | Temp. | Humidity | Pressure | Rain* | Wind** | Luminosity | Snow |
|---|---|---|---|---|---|---|---|
| 1777693151 | 7.78° C | 71% | 1015.5 hPa | 0 mm | - | 0 W/m² | - |
| 1777692849 | 7.78° C | 76% | 1015.6 hPa | 0 mm | - | 0 W/m² | - |
| 1777692545 | 7.78° C | 79% | 1015.7 hPa | 0 mm | - | 0 W/m² | - |
| 1777692241 | 8.33° C | 78% | 1015.8 hPa | 0 mm | - | 0 W/m² | - |
| 1777691939 | 8.33° C | 79% | 1015.9 hPa | 0 mm | - | 0 W/m² | - |
| 1777691637 | 8.33° C | 78% | 1015.7 hPa | 0 mm | - | 0 W/m² | - |
| 1777691335 | 8.33° C | 76% | 1015.9 hPa | 0 mm | - | 0 W/m² | - |
| 1777691033 | 8.33° C | 75% | 1016 hPa | 0 mm | - | 0 W/m² | - |
| 1777690730 | 8.33° C | 75% | 1015.9 hPa | 0 mm | - | 0 W/m² | - |
| 1777690428 | 8.33° C | 75% | 1015.7 hPa | 0 mm | - | 0 W/m² | - |
| 1777690125 | 8.33° C | 76% | 1015.8 hPa | 0 mm | - | 0 W/m² | - |
| 1777689823 | 8.33° C | 79% | 1015.7 hPa | 0 mm | - | 0 W/m² | - |
| 1777689521 | 8.89° C | 78% | 1015.7 hPa | 0 mm | - | 0 W/m² | - |
| 1777689218 | 8.89° C | 77% | 1015.7 hPa | 0 mm | - | 0 W/m² | - |
| 1777688916 | 8.89° C | 78% | 1015.7 hPa | 0 mm | - | 0 W/m² | - |
| 1777688612 | 8.89° C | 77% | 1015.7 hPa | 0 mm | - | 0 W/m² | - |
| 1777688309 | 8.89° C | 78% | 1015.6 hPa | 0 mm | - | 0 W/m² | - |
| 1777688006 | 8.89° C | 77% | 1015.6 hPa | 0 mm | - | 0 W/m² | - |
| 1777687704 | 8.89° C | 76% | 1015.5 hPa | 0 mm | - | 0 W/m² | - |
| 1777687401 | 8.89° C | 74% | 1015.3 hPa | 0 mm | - | 0 W/m² | - |
| 1777687098 | 8.89° C | 74% | 1015.6 hPa | 0 mm | - | 0 W/m² | - |
| 1777686795 | 9.44° C | 77% | 1015.7 hPa | 0 mm | - | 0 W/m² | - |
| 1777686492 | 9.44° C | 76% | 1015.6 hPa | 0 mm | - | 0 W/m² | - |
| 1777686189 | 9.44° C | 77% | 1015.7 hPa | 0 mm | - | 0 W/m² | - |
| 1777685885 | 9.44° C | 76% | 1015.4 hPa | 0 mm | - | 0 W/m² | - |
* Rain latest hour (hover to see other rain measurements)
** Current wind speed in m/s (hover to see current wind gust speed)